Погода в Больших Озерки

Россия / Тульская область     53°33′08″N   37°10′46″E
темп.,
°C
ветер,
м/с
пор.,
м/с
влажн.,
%
обл.,
%
осадки,
мм/ч
давл.,
гПа
погр.,
м
22 октября, пт
пт2200:00+11юз91869100 0.0 1001640
03:00+10юз101973100 0.0 1000729
06:00+10юз71671100 0.0 999526
09:00+10юз9167567 0.0 1000842
12:00+13зюз915665 0.0 10021568
15:00+12зюз10166271 0.1 10031715
18:00+10зюз814675 0.0 10051022
21:00+8зюз714683 0.1 1007804
23 октября, сб
сб2300:00+7зюз814664 0.0 1008851
03:00+6юз7147097 0.0 1008660
06:00+5юз714723 0.0 1008477
09:00+6юз7136433 0.0 1008648
12:00+8зюз8135643 0.0 10081279
15:00+8зюз61162100 0.0 10081554
18:00+5з6108689 0.6 1010841
21:00+6з7107070 0.6 10121111
24 октября, вс
вс2400:00+3зюз614807 0.0 1013508
03:00+4зюз61283100 0.0 1013463
06:00+5зюз7128182 0.0 1012863
09:00+4з71188100 0.1 1014993
12:00+4зсз7108270 0.3 1015849
15:00+3зсз71194100 0.7 1016823
18:00+2сз7129599 0.8 1018717
21:00+1ссз7128169 0.9 1020865
25 октября, пн
пн2500:000ссз7127982 0.0 1022919
03:00−1ссз7128679 0.0 1025795
06:00−1с71179100 0.0 1027836
09:00−1ссз69795 0.0 1030554
12:00+2с46575 0.0 1031781
15:00+3ссз3450100 0.0 1031774
18:00+1зсз226272 0.0 103232
21:000зюз336713 0.0 103361
26 октября, вт
вт2600:00−1юз37715 0.0 1033162
03:00−1юз49720 0.0 1033235
06:00−1юз511735 0.0 1032277
09:000юз51267100 0.0 1032346
12:00+4юз71050100 0.0 1030521
15:00+5юз61250100 0.0 1028581
18:00+2юз61457100 0.0 1028398
21:00+2юз71659100 0.0 1025428